{"data":{"norad_id":56143,"epoch":"2026-05-25T04:29:41.809344Z","epoch_age_seconds":59065,"freshness":"FRESH","line1":"1 56143U 23046BD  26145.18728946  .00008038  00000+0  42172-3 0  9994","line2":"2 56143  42.9992  82.2803 0000919 226.0582 134.0190 15.16053171173811","mean_motion":15.16053171,"eccentricity":9.19e-5,"inclination_deg":42.9992,"raan_deg":82.2803,"arg_perigee_deg":226.0582,"mean_anomaly_deg":134.019,"bstar":0.00042172,"rev_number":17381,"period_min":94.983476011608,"perigee_km":517.14933901729,"apogee_km":518.4168091269,"semimajor_km":6895.9200740721,"source":"CELESTRAK","updated_at":"2026-05-25T13:38:17.963147Z"}}